Location: Bush Observatory
(40.2653°N, 94.3194°W)
Time: 01:27:23
(UTC-05:00)

Iridium 13 - Visible Passes

Search period start: 22 September 2017 00:00
Search period end: 02 October 2017 00:00
Orbit: 776 x 779 km, 86.4° (Epoch: 21 September)

Date Brightness Start Highest point End Pass type
(mag) Time Alt. Az. Time Alt. Az. Time Alt. Az.
22 Sep 7.6 20:33:29 11° NE 20:33:29 11° NE 20:33:57 10° NE visible
22 Sep 7.0 22:13:56 32° NNW 22:13:56 32° NNW 22:16:45 10° N visible
23 Sep 6.6 21:40:14 34° NNE 21:40:14 34° NNE 21:43:13 10° N visible
23 Sep 8.3 23:20:42 13° NW 23:20:42 13° NW 23:21:54 10° NW visible
24 Sep 6.7 21:06:31 27° NE 21:06:31 27° NE 21:09:22 10° NNE visible
24 Sep 7.7 22:46:57 22° NW 22:46:57 22° NW 22:49:42 10° NNW visible
25 Sep 7.1 20:32:44 18° ENE 20:32:44 18° ENE 20:35:03 10° NE visible
25 Sep 6.9 22:13:11 36° NW 22:13:11 36° NW 22:16:43 10° N visible
26 Sep 6.0 21:39:21 54° N 21:39:21 54° N 21:43:21 10° N visible
27 Sep 5.8 21:05:27 47° ENE 21:05:27 47° ENE 21:09:42 10° NNE visible
27 Sep 7.9 22:45:53 18° WNW 22:45:53 18° WNW 22:49:09 10° NNW visible
28 Sep 6.4 20:31:27 28° E 20:31:27 28° E 20:35:41 10° NNE visible
28 Sep 7.1 22:11:52 32° W 22:11:53 32° W 22:16:32 10° NNW visible
29 Sep 7.0 19:57:19 15° E 19:58:05 15° ENE 20:01:02 10° NE visible
29 Sep 6.0 21:37:44 56° WSW 21:38:13 59° W 21:43:23 10° N visible
30 Sep 5.3 21:03:22 51° SSE 21:04:41 76° E 21:09:54 10° N visible
30 Sep 8.4 22:44:01 10° W 22:46:00 12° WNW 22:48:01 10° NW visible
01 Oct 5.9 20:28:35 23° SE 20:31:17 40° E 20:36:07 10° NNE visible
01 Oct 7.7 22:08:55 13° WSW 22:12:07 22° WNW 22:16:10 10° NNW visible
